EST,Max TemperatureF,Mean TemperatureF,Min TemperatureF,Max Dew PointF,MeanDew PointF,Min DewpointF,Max Humidity, Mean Humidity, Min Humidity, Max Sea Level PressureIn, Mean Sea Level PressureIn, Min Sea Level PressureIn, Max VisibilityMiles, Mean VisibilityMiles, Min VisibilityMiles, Max Wind SpeedMPH, Mean Wind SpeedMPH, Max Gust SpeedMPH,PrecipitationIn, CloudCover, Events, WindDirDegrees
2013-2-1,25,21,16,14,8,3,71,61,50,30.12,29.84,29.60,10,8,2,30,15,39,T,7,Snow,285
2013-2-2,24,17,10,14,7,1,80,58,36,30.21,30.07,29.96,10,8,2,23,8,33,T,5,Snow,239
2013-2-3,26,18,10,13,10,7,88,69,50,30.00,29.86,29.75,10,9,2,8,2,12,0.00,7,,296
2013-2-4,20,16,11,16,11,6,92,74,56,29.93,29.80,29.69,10,6,0,24,11,33,T,7,Snow,281
2013-2-5,28,21,14,19,12,7,80,63,46,29.99,29.91,29.83,10,9,2,8,1,10,T,6,Snow,185
2013-2-6,32,24,16,21,16,1,92,67,41,30.33,29.99,29.82,10,7,2,29,9,38,T,6,Snow,265
2013-2-7,28,19,10,7,4,0,76,55,33,30.50,30.41,30.31,10,10,10,12,3,17,0.00,4,,170
2013-2-8,28,24,19,22,17,7,91,71,50,30.35,29.99,29.69,10,4,0,24,12,35,0.19,8,Fog-Snow,69
2013-2-9,22,17,11,18,6,-4,91,64,36,30.33,29.92,29.72,10,4,0,26,14,38,0.29,5,Fog-Snow,325
2013-2-10,31,18,5,4,-1,-5,67,46,25,30.46,30.38,30.31,10,10,2,15,4,18,0.00,0,,261
2013-2-11,41,27,13,38,30,6,100,71,42,30.27,29.86,29.61,10,6,0,22,6,28,0.09,8,Fog-Rain-Snow,223
2013-2-12,35,32,29,28,25,19,82,73,63,29.88,29.74,29.64,10,10,10,30,12,43,0.00,8,,287
2013-2-13,37,32,27,22,20,18,75,61,47,29.86,29.79,29.69,10,10,10,14,4,18,0.00,6,,292
2013-2-14,35,27,19,21,18,15,81,69,56,29.95,29.86,29.70,10,10,10,7,2,9,0.00,3,,279
2013-2-15,44,35,26,27,24,21,85,67,49,29.95,29.91,29.86,10,9,5,15,7,23,T,5,Snow,276
2013-2-16,31,27,22,27,18,8,92,71,50,29.96,29.89,29.76,10,7,2,14,7,18,T,7,Snow,313
2013-2-17,22,16,9,4,0,-3,64,54,43,29.87,29.70,29.59,10,10,10,36,18,47,0.00,3,,308
2013-2-18,23,14,5,4,-2,-5,69,52,34,30.18,30.11,29.91,10,10,10,31,10,43,0.00,0,,291
2013-2-19,42,28,13,34,24,5,100,72,44,30.17,29.79,29.56,10,7,1,24,5,36,0.21,6,Rain-Snow,227
2013-2-20,30,26,21,27,16,8,92,71,50,29.85,29.69,29.58,10,8,2,30,18,43,T,8,Snow,292
2013-2-21,21,18,15,12,9,6,74,68,61,30.34,29.97,29.78,10,8,1,30,16,38,T,7,Snow,296
2013-2-22,38,26,13,21,16,10,92,68,44,30.41,30.31,30.23,10,10,10,13,5,18,0.00,3,,200
2013-2-23,34,32,29,31,28,21,100,85,69,30.22,30.03,29.85,10,8,2,15,7,20,0.01,8,Rain,105
2013-2-24,34,31,28,32,29,23,92,82,72,29.94,29.79,29.70,10,5,1,17,7,24,0.12,8,Rain-Snow,310
2013-2-25,37,31,25,27,24,21,85,71,56,30.22,30.09,29.95,10,10,10,16,4,22,0.00,6,,298
2013-2-26,38,30,22,25,23,21,92,73,54,30.29,30.20,30.02,10,10,7,15,5,26,T,6,,105
2013-2-27,37,34,31,34,30,25,100,82,63,29.99,29.77,29.56,10,4,0,14,8,21,0.38,8,Fog-Rain-Snow,57
2013-2-28,39,36,32,34,32,30,96,88,79,29.58,29.55,29.51,10,7,1,13,2,15,0.07,8,Snow,286